Regional Weather Roundup
Issued by NWS Boston, MA

Current Version | Previous Version | Text Only | Print | Product List | Glossary Off
Versions: 1 2 3 4 5 6 7 8 9 10 11 12 13 14 15 16 17 18 19 20 21 22 23 24 25 26 27 28 29 30 31 32 33 34 35 36 37 38 39 40 41 42 43 44 45 46 47 48 49 50
000 ASUS41 KBOX 201010 RWRBOX REGIONAL WEATHER ROUNDUP NATIONAL WEATHER SERVICE BOSTON/NORTON MA 600 AM EDT MON AUG 20 2018 NOTE: "FAIR" INDICATES FEW OR NO CLOUDS BELOW 12,000 FEET WITH NO SIGNIFICANT WEATHER AND/OR OBSTRUCTIONS TO VISIBILITY. MAZALL-201100- EASTERN MASSACHUSETTS CITY SKY/WX TMP DP RH WIND PRES REMARKS BOSTON MOCLDY 67 62 84 N10 30.13R BEVERLY CLOUDY 65 63 93 N6 30.13R LAWRENCE MOCLDY 65 60 84 N8 30.17R BEDFORD MOCLDY 62 60 93 N5 30.13R BLUE HILL N/A 63 61 93 NE9 30.12R NORWOOD CLOUDY 68 63 84 N5 30.12R MARSHFIELD CLOUDY 68 64 88 NE9G15 30.11R PLYMOUTH LGT RAIN 67 64 90 NE13 30.10R TAUNTON CLOUDY 66 64 93 VRB5 30.10R FOG NEW BEDFORD LGT RAIN 65 65 100 N5 30.08R FOG $$ MAZALL-201100- CAPE COD AND THE ISLANDS CITY SKY/WX TMP DP RH WIND PRES REMARKS FALMOUTH CLOUDY 64 64 100 NE13G18 30.08S FOG HYANNIS LGT RAIN 67 66 97 NE10 30.06S FOG CHATHAM CLOUDY 66 65 96 NE8 30.07S FOG PROVINCETOWN CLOUDY 65 63 93 NE12 30.09S NANTUCKET CLOUDY 66 66 100 NE12 30.05S FOG MARTHAS VNYRD LGT RAIN 67 67 100 N12 30.07R FOG $$ MAZALL-201100- CENTRAL AND WESTERN MASSACHUSETTS CITY SKY/WX TMP DP RH WIND PRES REMARKS WORCESTER CLOUDY 60 60 100 N7 30.16R FITCHBURG MOCLDY 62 59 90 NW5 30.16R ORANGE LGT RAIN 62 59 90 N5 30.18R SPRINGFIELD CLOUDY 63 58 84 N7 30.14R WESTFIELD CLOUDY 65 60 84 N9 30.15R NORTH ADAMS FAIR 55 53 93 CALM 30.17R PITTSFIELD MOCLDY 58 54 86 CALM 30.16R $$ RIZALL-201100- RHODE ISLAND CITY SKY/WX TMP DP RH WIND PRES REMARKS PROVIDENCE CLOUDY 67 63 87 N8 30.11R NEWPORT CLOUDY 66 64 93 NE14 30.09R BLOCK ISLAND CLOUDY 67 65 93 NE10G20 30.09R SMITHFIELD CLOUDY 64 63 96 N7 30.13R WESTERLY CLOUDY 68 66 93 N6 30.10R $$ CTZALL-201100- CONNECTICUT CITY SKY/WX TMP DP RH WIND PRES REMARKS BRADLEY INTL MOCLDY 65 60 84 N7 30.14R HARTFORD CLOUDY 67 60 78 N9 30.14R BRIDGEPORT CLOUDY 68 61 78 NE10 30.12R DANBURY CLOUDY 64 60 87 NE6 30.15R GROTON CLOUDY 66 63 90 N9 30.10R NEW HAVEN CLOUDY 67 61 81 N9 30.12R CHESTER CLOUDY 64 63 94 N6 30.13R MERIDEN CLOUDY 66 59 78 N6 30.13R WILLIMANTIC CLOUDY 66 63 90 NE7 30.13R OXFORD CLOUDY 63 60 90 N12 30.15R $$ MEZ002-015-021-024-NHZ003-005-008-011-012-014-VTZ005-008-201100- NORTHERN NEW ENGLAND CITY SKY/WX TMP DP RH WIND PRES REMARKS PORTLAND ME FAIR 60 58 92 CALM 30.18R BANGOR ME MOCLDY 58 57 97 N6 30.21R CONCORD NH CLOUDY 61 59 93 NW7 30.18R MANCHESTER NH CLOUDY 65 60 84 N9 30.15R NASHUA NH CLOUDY 64 62 93 NW7 30.16R PORTSMOUTH NH CLOUDY 64 59 82 NE7 30.15R JAFFREY NH CLOUDY 61 60 97 VRB3 30.20R KEENE NH FAIR N/A N/A N/A S3 30.19R BURLINGTON VT FAIR 62 57 83 SE5 30.17R MT. WASHINGTON PTCLDY 45 36 70 N17 N/A $$ NYZ052-076-201100- EASTERN NEW YORK CITY SKY/WX TMP DP RH WIND PRES REMARKS ALBANY FAIR 60 57 89 NE3 30.17R NEW YORK CITY MOCLDY 69 60 73 N8 30.10R $$ ANZALL-201100- MARINE OBSERVATIONS STATION/POSITION TIME TEMP WIND PRES VSBY WAVE AIR SEA DIR/SP/G HT/PER (UTC) (F) (DEG/KT/KT) (MB) (MI) (FT/S) BOSTON BUOY 0950 66 67 30/ 17/ 19 1018.8R 4/ 6 BUZZARDS BAY 0900 66 20/ 18/ 20 1018.4R NANTUCKET SOUND 0950 68 75 50/ 17/ 21 1017.5R 2/ 3 MASS BAY-STELLWA 0904 67 67 30/ 16/ 17 1017.6S 1 7/8 4/ 6 ISLE OF SHOALS 0900 65 30/ 13/ 14 1019.8R S OF BLOCK IS 0943 73 N/A 4/ 4 $$ ......................KEY......................... SKY/WX - SKY CONDITION/PRESENT WEATHER TMP - TEMPERATURE IN FAHRENHEIT DWPT - DEWPOINT IN FAHRENHEIT RH - RELATIVE HUMIDITY IN PERCENT WIND - DIRECTION AND SPEED IN MPH PRES - MEAN SEA LEVEL PRESSURE IN INCHES OF HG WCI - WIND CHILL INDEX VSB - VISIBILITY IN MILES HX - HEAT INDEX TC - TEMPERATURE IN CELSIUS VRB - VARIABLE WIND DIRECTION N/A - NOT AVAILABLE

USA.gov is the U.S. government's official web portal to all federal, state and local government web resources and services.